Location: Foulognes
(49.1413°N, 0.8183°W)
Time: 15:06:18
(UTC+00:00)

Cosmos 2061 Rocket - Pass Details

Date: 21 October 2019
Orbit: 965 x 1013 km, 82.9° (Epoch: 16 November)

Event Time Altitude Azimuth Distance (km) Brightness Sun altitude
Rises 18:36:36 0° 354° (N) 3,695 7.1 -16.1°
Reaches altitude 10° 18:39:18 10° 1° (N) 2,737 6.4 -16.5°
Maximum altitude 18:45:14 43° 72° (ENE) 1,329 4.3 -17.5°
Enters shadow 18:49:21 19° 136° (SE) 2,120 5.3 -18.2°
